Location: �chenoz-la-M�line
(47.6009°N, 6.1354°E)
Time: 11:52:30
(UTC+00:00)

Cosmos 1408 - Pass Details

Date: 27 January 2021
Orbit: 469 x 491 km, 82.6° (Epoch: 02 March)

Event Time Altitude Azimuth Distance (km) Brightness Sun altitude
Rises 06:26:31 0° 346° (NNW) 2,533 5.9 -7.3°
Reaches altitude 10° 06:28:38 10° 343° (NNW) 1,652 4.9 -6.9°
Maximum altitude 06:32:10 56° 265° (W) 577 2.6 -6.4°
Drops below altitude 10° 06:35:42 10° 186° (S) 1,649 5.5 -5.8°
Sets 06:37:48 0° 182° (S) 2,527 6.5 -5.5°
